{"data":{"norad_id":52377,"epoch":"2026-05-25T03:24:25.180704Z","epoch_age_seconds":76967,"freshness":"FRESH","line1":"1 52377U 22045AY  26145.14195811 -.00000331  00000+0 -27169-5 0  9993","line2":"2 52377  53.2128 206.1343 0001197  98.1931 261.9196 15.08834733227451","mean_motion":15.08834733,"eccentricity":0.0001197,"inclination_deg":53.2128,"raan_deg":206.1343,"arg_perigee_deg":98.1931,"mean_anomaly_deg":261.9196,"bstar":-2.7169e-6,"rev_number":22745,"period_min":95.437887828633,"perigee_km":538.93141591321,"apogee_km":540.58756033247,"semimajor_km":6917.8964881228,"source":"CELESTRAK","updated_at":"2026-05-25T13:38:17.122121Z"}}